FW0864 Weather Reports


Display with metric or nautical units.
time (UTC)temp
F
wind
direction
speed
MPH
gust
MPH
rain 1hr
in
rain 24hr
in
rain mn
in
humidity
%
barometer
mb
20260502130558 58 285 2.0 5.0 0.00 0.00 0.00 80 1007.6
20260502123554 58 339 2.0 8.0 0.00 0.00 0.00 79 1006.7
20260502123111 58 345 3.0 8.0 0.00 0.00 0.00 79 1006.8
20260502122550 58 347 2.0 5.0 0.00 0.00 0.00 79 1006.9
20260502122052 58 323 1.0 4.0 0.00 0.00 0.00 79 1006.9
20260502121555 58 314 2.0 4.0 0.00 0.00 0.00 79 1007.0
20260502121048 59 301 1.0 3.0 0.00 0.00 0.00 79 1007.2
20260502120547 59 347 1.0 4.0 0.00 0.00 0.00 79 1007.3
20260502115546 59 305 2.0 4.0 0.00 0.00 0.00 79 1007.4
20260502115046 59 327 2.0 4.0 0.00 0.00 0.00 79 1007.4
20260502114545 59 266 2.0 4.0 0.00 0.00 0.00 79 1007.3
20260502114047 59 263 2.0 3.0 0.00 0.00 0.00 79 1007.4
20260502113544 59 286 1.0 6.0 0.00 0.00 0.00 79 1007.4
20260502113049 59 293 2.0 6.0 0.00 0.00 0.00 79 1007.4
20260502112543 59 246 1.0 4.0 0.00 0.00 0.00 79 1007.3
20260502112043 59 286 1.0 4.0 0.00 0.00 0.00 79 1007.2
20260502111545 59 293 1.0 2.0 0.00 0.00 0.00 78 1007.3
20260502111044 60 298 0.0 2.0 0.00 0.00 0.00 78 1007.3
20260502110541 60 336 0.0 3.0 0.00 0.00 0.00 78 1007.3
20260502110042 60 318 1.0 3.0 0.00 0.00 0.00 78 1007.3
20260502105540 60 331 1.0 4.0 0.00 0.00 0.00 77 1007.3
20260502105039 60 332 1.0 4.0 0.00 0.00 0.00 77 1007.3
20260502104539 60 53 0.0 4.0 0.00 0.00 0.00 76 1007.3
20260502104039 61 326 1.0 4.0 0.00 0.00 0.00 76 1007.3
20260502103537 61 327 1.0 4.0 0.00 0.00 0.00 75 1007.4
20260502103036 61 315 1.0 4.0 0.00 0.00 0.00 75 1007.4
20260502102534 61 337 2.0 4.0 0.00 0.00 0.00 74 1007.4
20260502102035 61 332 2.0 4.0 0.00 0.00 0.00 74 1007.4
20260502101539 62 335 1.0 6.0 0.00 0.00 0.00 73 1007.5
20260502101033 62 348 3.0 6.0 0.00 0.00 0.00 73 1007.5
20260502100532 62 335 2.0 6.0 0.00 0.00 0.00 72 1007.5
20260502091526 63 297 3.0 6.0 0.00 0.00 0.00 72 1007.7
20260502091025 63 322 3.0 6.0 0.00 0.00 0.00 72 1007.8
20260502090525 63 248 2.0 5.0 0.00 0.00 0.00 72 1007.9
20260502071512 66 323 4.0 8.0 0.00 0.00 0.00 72 1008.2
20260502071011 66 349 2.0 9.0 0.00 0.00 0.00 72 1008.2
20260502070517 66 344 3.0 9.0 0.00 0.00 0.00 71 1008.3
20260502070016 66 339 3.0 9.0 0.00 0.00 0.00 71 1008.3
20260502065510 66 331 3.0 9.0 0.00 0.00 0.00 70 1008.2
20260502065013 67 326 3.0 9.0 0.00 0.00 0.00 70 1008.2
20260502064510 67 354 3.0 9.0 0.00 0.00 0.00 69 1008.2
20260502064009 67 341 3.0 9.0 0.00 0.00 0.00 68 1008.2
20260502063509 68 343 3.0 8.0 0.00 0.00 0.00 68 1008.2
20260502063009 68 334 4.0 8.0 0.00 0.00 0.00 67 1008.3
20260502062509 68 320 3.0 9.0 0.00 0.00 0.00 66 1008.2
20260502062009 68 301 3.0 9.0 0.00 0.00 0.00 66 1008.2
20260502061509 69 322 3.0 9.0 0.00 0.00 0.00 65 1008.3
20260502061008 69 347 3.0 9.0 0.00 0.00 0.00 64 1008.3
20260502060513 69 304 4.0 11.0 0.00 0.00 0.00 64 1008.3
20260502060008 69 333 5.0 11.0 0.00 0.00 0.00 64 1008.3
20260502055508 70 341 3.0 9.0 0.00 0.00 0.00 63 1008.3
20260502055008 70 317 3.0 5.0 0.00 0.00 0.00 63 1008.3
20260502054508 70 281 2.0 8.0 0.00 0.00 0.00 62 1008.2
20260502054008 71 338 3.0 8.0 0.00 0.00 0.00 61 1008.1
20260502053507 71 336 2.0 5.0 0.00 0.00 0.00 61 1008.2
20260502053007 71 330 2.0 5.0 0.00 0.00 0.00 60 1008.1
20260502052507 71 316 3.0 6.0 0.00 0.00 0.00 60 1008.2
20260502052009 72 346 2.0 6.0 0.00 0.00 0.00 60 1008.2
20260502051507 72 252 2.0 6.0 0.00 0.00 0.00 60 1008.1
20260502051006 72 324 3.0 6.0 0.00 0.00 0.00 61 1008.1
20260502050506 72 276 3.0 7.0 0.00 0.00 0.00 60 1008.1
20260502050010 72 278 2.0 7.0 0.00 0.00 0.00 60 1008.0
20260502045506 73 285 2.0 5.0 0.00 0.00 0.00 60 1008.1
20260502045006 73 278 2.0 5.0 0.00 0.00 0.00 60 1008.0
20260502044505 73 337 2.0 5.0 0.00 0.00 0.00 60 1008.0
20260502044005 73 303 2.0 5.0 0.00 0.00 0.00 60 1007.9
20260502043505 74 308 1.0 8.0 0.00 0.00 0.00 59 1007.9
20260502043004 74 290 2.0 8.0 0.00 0.00 0.00 59 1007.8
20260502042504 74 354 2.0 5.0 0.00 0.00 0.00 59 1007.8
20260502042005 74 283 2.0 5.0 0.00 0.00 0.00 59 1007.7
20260502041504 74 329 2.0 5.0 0.00 0.00 0.00 58 1007.6
20260502041004 75 324 2.0 5.0 0.00 0.00 0.00 57 1007.6
20260502040503 75 297 2.0 6.0 0.00 0.00 0.00 57 1007.5
20260502040004 75 312 2.0 5.0 0.00 0.00 0.00 56 1007.5
20260502035503 76 303 2.0 5.0 0.00 0.00 0.00 56 1007.4
20260502035003 76 291 2.0 6.0 0.00 0.00 0.00 55 1007.3
20260502034503 76 314 2.0 6.0 0.00 0.00 0.00 55 1007.2
20260502034003 76 300 2.0 6.0 0.00 0.00 0.00 54 1007.2
20260502033502 77 308 2.0 6.0 0.00 0.00 0.00 54 1007.1
20260502033001 77 314 1.0 8.0 0.00 0.00 0.00 53 1007.1
20260502032503 77 307 2.0 8.0 0.00 0.00 0.00 53 1007.0
20260502032001 77 311 1.0 6.0 0.00 0.00 0.00 53 1007.0
20260502031501 78 253 3.0 6.0 0.00 0.00 0.00 53 1006.9
20260502031002 78 316 3.0 8.0 0.00 0.00 0.00 53 1006.9
20260502030500 78 291 3.0 8.0 0.00 0.00 0.00 52 1006.8
20260502030002 79 291 3.0 7.0 0.00 0.00 0.00 52 1006.8
20260502025501 79 336 2.0 6.0 0.00 0.00 0.00 51 1006.7
20260502025001 79 297 3.0 6.0 0.00 0.00 0.00 51 1006.7
20260502024502 80 305 2.0 9.0 0.00 0.00 0.00 50 1006.7
20260502024100 80 350 3.0 9.0 0.00 0.00 0.00 49 1006.7
20260502024001 80 281 3.0 8.0 0.00 0.00 0.00 49 1006.7
20260502023601 80 319 1.0 8.0 0.00 0.00 0.00 49 1006.7
20260502023100 81 341 4.0 10.0 0.00 0.00 0.00 48 1006.7
20260502022600 81 326 4.0 8.0 0.00 0.00 0.00 47 1006.6
20260502022059 81 256 2.0 9.0 0.00 0.00 0.00 47 1006.6
20260502021601 82 299 2.0 9.0 0.00 0.00 0.00 47 1006.6
20260502021101 82 319 2.0 5.0 0.00 0.00 0.00 46 1006.6
20260502020558 82 301 1.0 9.0 0.00 0.00 0.00 47 1006.6
20260502020059 82 41 5.0 10.0 0.00 0.00 0.00 46 1006.6
20260502015558 82 335 4.0 10.0 0.00 0.00 0.00 45 1006.6
20260502015058 83 326 5.0 9.0 0.00 0.00 0.00 44 1006.7
20260502014558 82 343 4.0 12.0 0.00 0.00 0.00 44 1006.6
20260502014057 83 16 5.0 12.0 0.00 0.00 0.00 43 1006.7
20260502013557 84 318 4.0 10.0 0.00 0.00 0.00 41 1006.6
20260502013058 84 278 3.0 7.0 0.00 0.00 0.00 40 1006.7
20260502012556 84 343 2.0 11.0 0.00 0.00 0.00 40 1006.7
20260502012056 84 340 3.0 11.0 0.00 0.00 0.00 39 1006.7
20260502011556 84 335 3.0 10.0 0.00 0.00 0.00 39 1006.8
20260502011056 84 354 3.0 9.0 0.00 0.00 0.00 39 1006.8
20260502010556 84 343 3.0 11.0 0.00 0.00 0.00 40 1006.8
20260502010055 84 14 3.0 11.0 0.00 0.00 0.00 41 1006.8
20260502005555 85 354 4.0 12.0 0.00 0.00 0.00 40 1006.8
20260502005055 85 12 3.0 10.0 0.00 0.00 0.00 41 1006.9
20260502004555 86 345 6.0 10.0 0.00 0.00 0.00 39 1006.9
20260502004055 86 326 3.0 11.0 0.00 0.00 0.00 39 1006.8
20260502003554 86 4 4.0 12.0 0.00 0.00 0.00 39 1006.8
20260502003054 86 335 3.0 12.0 0.00 0.00 0.00 39 1006.9
20260502002555 85 10 3.0 12.0 0.00 0.00 0.00 40 1006.9
20260502002053 86 343 6.0 12.0 0.00 0.00 0.00 38 1006.9
20260502001556 86 359 4.0 13.0 0.00 0.00 0.00 37 1006.9
20260502001054 87 4 3.0 13.0 0.00 0.00 0.00 36 1006.9
20260502000553 87 275 3.0 9.0 0.00 0.00 0.00 36 1006.9
20260502000059 87 23 2.0 8.0 0.00 0.00 0.00 37 1006.9
20260501235554 87 359 3.0 9.0 0.00 0.00 0.00 36 1007.0
20260501235053 87 324 4.0 9.0 0.00 0.00 0.00 37 1007.0
20260501234553 87 44 4.0 13.0 0.00 0.00 0.00 37 1007.0
20260501234051 86 118 2.0 13.0 0.00 0.00 0.00 37 1007.1
20260501233550 86 295 3.0 13.0 0.00 0.00 0.00 35 1007.1
20260501233050 85 354 7.0 14.0 0.00 0.00 0.00 35 1007.2
20260501232552 86 296 7.0 14.0 0.00 0.00 0.00 34 1007.1
20260501232052 87 341 4.0 11.0 0.00 0.00 0.00 34 1007.2
20260501231554 87 259 5.0 11.0 0.00 0.00 0.00 32 1007.2
20260501231047 87 282 4.0 13.0 0.00 0.00 0.00 33 1007.3
20260501230547 86 287 7.0 13.0 0.00 0.00 0.00 32 1007.4
20260501230047 87 343 4.0 12.0 0.00 0.00 0.00 34 1007.4
20260501225546 86 337 5.0 12.0 0.00 0.00 0.00 34 1007.5
20260501225045 87 349 2.0 11.0 0.00 0.00 0.00 35 1007.5
20260501224545 87 260 4.0 10.0 0.00 0.00 0.00 34 1007.6
20260501224048 87 313 4.0 9.0 0.00 0.00 0.00 34 1007.7
20260501223543 87 278 5.0 9.0 0.00 0.00 0.00 34 1007.8
20260501223042 86 274 3.0 10.0 0.00 0.00 0.00 34 1007.9
20260501222543 86 255 6.0 11.0 0.00 0.00 0.00 34 1008.0
20260501222040 86 329 4.0 11.0 0.00 0.00 0.00 34 1008.1
20260501221551 86 270 5.0 11.0 0.00 0.00 0.00 34 1008.2
20260501221038 85 267 4.0 10.0 0.00 0.00 0.00 35 1008.3
20260501220538 86 261 4.0 9.0 0.00 0.00 0.00 34 1008.4
20260501220041 86 299 6.0 9.0 0.00 0.00 0.00 34 1008.5
20260501215536 85 315 1.0 9.0 0.00 0.00 0.00 35 1008.5
20260501215038 85 268 4.0 12.0 0.00 0.00 0.00 35 1008.6
20260501214543 85 239 4.0 9.0 0.00 0.00 0.00 36 1008.6
20260501214034 84 332 2.0 11.0 0.00 0.00 0.00 36 1008.6
20260501213534 85 216 5.0 11.0 0.00 0.00 0.00 36 1008.7
20260501213034 85 262 5.0 9.0 0.00 0.00 0.00 35 1008.7
20260501212536 85 283 4.0 10.0 0.00 0.00 0.00 35 1008.8
20260501212034 85 271 6.0 10.0 0.00 0.00 0.00 35 1008.8
20260501211534 86 263 4.0 9.0 0.00 0.00 0.00 35 1008.9
20260501211033 85 285 3.0 9.0 0.00 0.00 0.00 37 1008.9
20260501210533 85 206 3.0 9.0 0.00 0.00 0.00 36 1009.0
20260501210033 86 270 3.0 9.0 0.00 0.00 0.00 35 1008.9
20260501205532 85 301 2.0 6.0 0.00 0.00 0.00 36 1008.9
20260501205032 85 359 2.0 8.0 0.00 0.00 0.00 36 1009.0
20260501204531 85 241 3.0 9.0 0.00 0.00 0.00 36 1008.9
20260501204029 84 258 3.0 9.0 0.00 0.00 0.00 37 1009.0
20260501203528 84 267 5.0 9.0 0.00 0.00 0.00 36 1009.0
20260501203028 84 291 1.0 7.0 0.00 0.00 0.00 37 1009.1
20260501202526 84 230 2.0 7.0 0.00 0.00 0.00 36 1009.2
20260501202028 83 286 2.0 8.0 0.00 0.00 0.00 37 1009.3
20260501201526 83 247 4.0 10.0 0.00 0.00 0.00 36 1009.4
20260501201026 83 302 3.0 8.0 0.00 0.00 0.00 37 1009.4
20260501200523 82 158 1.0 9.0 0.00 0.00 0.00 37 1009.5
20260501200033 82 249 4.0 9.0 0.00 0.00 0.00 37 1009.7
20260501195523 82 234 5.0 9.0 0.00 0.00 0.00 38 1009.7
20260501195023 82 18 4.0 9.0 0.00 0.00 0.00 37 1009.8
20260501194532 81 278 0.0 7.0 0.00 0.00 0.00 38 1009.9
20260501194023 81 150 4.0 7.0 0.00 0.00 0.00 37 1009.9
20260501193522 81 179 2.0 7.0 0.00 0.00 0.00 38 1010.0
20260501193022 81 232 3.0 6.0 0.00 0.00 0.00 39 1010.0
20260501192520 81 247 4.0 7.0 0.00 0.00 0.00 38 1010.1
20260501192020 81 270 2.0 6.0 0.00 0.00 0.00 38 1010.3
20260501191522 81 320 1.0 4.0 0.00 0.00 0.00 37 1010.3
20260501191018 81 12 1.0 9.0 0.00 0.00 0.00 37 1010.4
20260501190516 81 226 2.0 9.0 0.00 0.00 0.00 37 1010.4
20260501190030 80 211 1.0 6.0 0.00 0.00 0.00 38 1010.5
20260501185514 79 235 3.0 6.0 0.00 0.00 0.00 38 1010.5
20260501185013 78 312 1.0 8.0 0.00 0.00 0.00 40 1010.6
20260501184514 78 260 1.0 8.0 0.00 0.00 0.00 39 1010.6
20260501184011 78 231 3.0 7.0 0.00 0.00 0.00 39 1010.7
20260501183510 78 199 2.0 7.0 0.00 0.00 0.00 40 1010.8
20260501183008 77 156 1.0 7.0 0.00 0.00 0.00 41 1010.8
20260501182507 77 320 2.0 7.0 0.00 0.00 0.00 40 1010.8
20260501182005 76 203 1.0 7.0 0.00 0.00 0.00 42 1010.8
20260501181504 75 162 1.0 7.0 0.00 0.00 0.00 43 1010.8
20260501181003 75 316 1.0 7.0 0.00 0.00 0.00 43 1010.8
20260501180503 76 337 2.0 6.0 0.00 0.00 0.00 43 1011.0
20260501180002 76 328 2.0 4.0 0.00 0.00 0.00 44 1011.1
20260501175604 75 29 0.0 3.0 0.00 0.00 0.00 45 1011.0
20260501175059 74 346 1.0 5.0 0.00 0.00 0.00 44 1011.1
20260501174559 74 301 2.0 6.0 0.00 0.00 0.00 45 1011.1
20260501174057 74 253 1.0 4.0 0.00 0.00 0.00 43 1011.1
20260501173557 74 284 1.0 5.0 0.00 0.00 0.00 44 1011.1
20260501173112 74 277 2.0 5.0 0.00 0.00 0.00 43 1011.1
20260501172554 74 4 2.0 4.0 0.00 0.00 0.00 44 1011.2
20260501172052 73 48 2.0 4.0 0.00 0.00 0.00 45 1011.2
20260501171551 72 167 0.0 4.0 0.00 0.00 0.00 48 1011.2
20260501171050 71 290 1.0 7.0 0.00 0.00 0.00 47 1011.2
20260501170549 70 251 3.0 8.0 0.00 0.00 0.00 47 1011.2
20260501170050 70 268 4.0 8.0 0.00 0.00 0.00 49 1011.3
20260501165547 70 246 3.0 9.0 0.00 0.00 0.00 49 1011.3
20260501165046 71 252 1.0 4.0 0.00 0.00 0.00 49 1011.3
20260501164549 70 284 1.0 5.0 0.00 0.00 0.00 50 1011.4
20260501164044 71 4 1.0 4.0 0.00 0.00 0.00 51 1011.3
20260501163546 71 326 1.0 4.0 0.00 0.00 0.00 50 1011.3
20260501163041 70 340 0.0 3.0 0.00 0.00 0.00 53 1011.3
20260501162539 69 339 0.0 3.0 0.00 0.00 0.00 54 1011.3
20260501162037 69 359 1.0 4.0 0.00 0.00 0.00 54 1011.3
20260501161537 68 316 2.0 4.0 0.00 0.00 0.00 55 1011.3
20260501161035 67 305 1.0 6.0 0.00 0.00 0.00 57 1011.3
20260501160536 66 293 3.0 6.0 0.00 0.00 0.00 56 1011.2
20260501160034 66 326 2.0 5.0 0.00 0.00 0.00 58 1011.2
20260501155531 66 313 2.0 5.0 0.00 0.00 0.00 58 1011.2
20260501155030 65 39 1.0 6.0 0.00 0.00 0.00 60 1011.2
20260501154529 65 339 3.0 6.0 0.00 0.00 0.00 60 1011.2
20260501154028 64 44 1.0 6.0 0.00 0.00 0.00 63 1011.2
20260501153527 63 337 2.0 6.0 0.00 0.00 0.00 63 1011.2
20260501153053 63 8 3.0 8.0 0.00 0.00 0.00 63 1011.1
20260501152524 63 332 3.0 8.0 0.00 0.00 0.00 63 1011.1
20260501152022 62 320 2.0 8.0 0.00 0.00 0.00 64 1011.1
20260501151522 62 25 1.0 8.0 0.00 0.00 0.00 66 1011.1
20260501151020 61 341 1.0 4.0 0.00 0.00 0.00 66 1011.1
20260501150521 61 285 1.0 5.0 0.00 0.00 0.00 67 1011.0
20260501150019 61 327 2.0 5.0 0.00 0.00 0.00 67 1011.1
20260501145518 60 308 2.0 4.0 0.00 0.00 0.00 68 1010.9
20260501145016 60 300 1.0 4.0 0.00 0.00 0.00 69 1010.8
20260501144527 60 247 2.0 4.0 0.00 0.00 0.00 70 1010.8
20260501144015 59 269 0.0 4.0 0.00 0.00 0.00 71 1010.7
20260501143519 59 305 3.0 4.0 0.00 0.00 0.00 71 1010.6
20260501143011 59 313 1.0 4.0 0.00 0.00 0.00 72 1010.6
20260501142510 58 312 2.0 4.0 0.00 0.00 0.00 73 1010.6
20260501142007 58 341 2.0 4.0 0.00 0.00 0.00 73 1010.5
20260501141508 58 308 1.0 4.0 0.00 0.00 0.00 74 1010.3